Year,Month,Day,Hour,Minute,Value (Times are PST for temperature in C)
2012,05,06,00,00,5.90
2012,05,06,00,01,5.90
2012,05,06,00,02,5.80
2012,05,06,00,03,5.80
2012,05,06,00,04,5.80
2012,05,06,00,05,5.80
2012,05,06,00,06,5.80
2012,05,06,00,07,5.80
2012,05,06,00,08,5.80
2012,05,06,00,09,5.80
2012,05,06,00,10,5.80
2012,05,06,00,11,5.90
2012,05,06,00,12,6.00
2012,05,06,00,13,6.00
2012,05,06,00,14,6.10
2012,05,06,00,15,6.10
2012,05,06,00,16,6.10
2012,05,06,00,17,6.10
2012,05,06,00,18,6.10
2012,05,06,00,19,6.00
2012,05,06,00,20,6.00
2012,05,06,00,21,6.00
2012,05,06,00,22,6.00
2012,05,06,00,23,5.90
2012,05,06,00,24,5.90
2012,05,06,00,25,5.90
2012,05,06,00,26,5.90
2012,05,06,00,27,5.90
2012,05,06,00,28,5.90
2012,05,06,00,29,5.80
2012,05,06,00,30,5.80
2012,05,06,00,31,5.80
2012,05,06,00,32,5.70
2012,05,06,00,33,5.70
2012,05,06,00,34,5.60
2012,05,06,00,35,5.60
2012,05,06,00,36,5.50
2012,05,06,00,37,5.50
2012,05,06,00,38,5.40
2012,05,06,00,39,5.40
2012,05,06,00,40,5.40
2012,05,06,00,41,5.50
2012,05,06,00,42,5.50
2012,05,06,00,43,5.50
2012,05,06,00,44,5.60
2012,05,06,00,45,5.60
2012,05,06,00,46,5.50
2012,05,06,00,47,5.50
2012,05,06,00,48,5.50
2012,05,06,00,49,5.50
2012,05,06,00,50,5.40
2012,05,06,00,51,5.40
2012,05,06,00,52,5.40
2012,05,06,00,53,5.30
2012,05,06,00,54,5.30
2012,05,06,00,55,5.30
2012,05,06,00,56,5.20
2012,05,06,00,57,5.20
2012,05,06,00,58,5.20
2012,05,06,00,59,5.20
2012,05,06,01,00,5.20
2012,05,06,01,01,5.10
2012,05,06,01,02,5.10
2012,05,06,01,03,5.10
2012,05,06,01,04,5.00
2012,05,06,01,05,5.00
2012,05,06,01,06,4.90
2012,05,06,01,07,5.00
2012,05,06,01,08,4.90
2012,05,06,01,09,4.90
2012,05,06,01,10,4.90
2012,05,06,01,11,4.90
2012,05,06,01,12,4.90
2012,05,06,01,13,4.90
2012,05,06,01,14,4.80
2012,05,06,01,15,4.80
2012,05,06,01,16,4.80
2012,05,06,01,17,4.70
2012,05,06,01,18,4.70
2012,05,06,01,19,4.70
2012,05,06,01,20,4.70
2012,05,06,01,21,4.70
2012,05,06,01,22,4.70
2012,05,06,01,23,4.70
2012,05,06,01,24,4.70
2012,05,06,01,25,4.70
2012,05,06,01,26,4.70
2012,05,06,01,27,4.70
2012,05,06,01,28,4.70
2012,05,06,01,29,4.60
2012,05,06,01,30,4.60
2012,05,06,01,31,4.60
2012,05,06,01,32,4.60
2012,05,06,01,33,4.60
2012,05,06,01,34,4.60
2012,05,06,01,35,4.60
2012,05,06,01,36,4.60
2012,05,06,01,37,4.60
2012,05,06,01,38,4.60
2012,05,06,01,39,4.60
2012,05,06,01,40,4.60
2012,05,06,01,41,4.60
2012,05,06,01,42,4.60
2012,05,06,01,43,4.60
2012,05,06,01,44,4.60
2012,05,06,01,45,4.60
2012,05,06,01,46,4.60
2012,05,06,01,47,4.60
2012,05,06,01,48,4.60
2012,05,06,01,49,4.60
2012,05,06,01,50,4.60
2012,05,06,01,51,4.60
2012,05,06,01,52,4.60
2012,05,06,01,53,4.60
2012,05,06,01,54,4.60
2012,05,06,01,55,4.60
2012,05,06,01,56,4.60
2012,05,06,01,57,4.60
2012,05,06,01,58,4.60
2012,05,06,01,59,4.60
2012,05,06,02,00,4.60
2012,05,06,02,01,4.60
2012,05,06,02,02,4.60
2012,05,06,02,03,4.60
2012,05,06,02,04,4.60
2012,05,06,02,05,4.60
2012,05,06,02,06,4.50
2012,05,06,02,07,4.50
2012,05,06,02,08,4.50
2012,05,06,02,09,4.50
2012,05,06,02,10,4.50
2012,05,06,02,11,4.50
2012,05,06,02,12,4.40
2012,05,06,02,13,4.40
2012,05,06,02,14,4.50
2012,05,06,02,15,4.50
2012,05,06,02,16,4.50
2012,05,06,02,17,4.50
2012,05,06,02,18,4.50
2012,05,06,02,19,4.50
2012,05,06,02,20,4.50
2012,05,06,02,21,4.50
2012,05,06,02,22,4.50
2012,05,06,02,23,4.50
2012,05,06,02,24,4.60
2012,05,06,02,25,4.60
2012,05,06,02,26,4.60
2012,05,06,02,27,4.60
2012,05,06,02,28,4.60
2012,05,06,02,29,4.60
2012,05,06,02,30,4.60
2012,05,06,02,31,4.60
2012,05,06,02,32,4.50
2012,05,06,02,33,4.50
2012,05,06,02,34,4.50
2012,05,06,02,35,4.50
2012,05,06,02,36,4.40
2012,05,06,02,37,4.40
2012,05,06,02,38,4.40
2012,05,06,02,39,4.40
2012,05,06,02,40,4.40
2012,05,06,02,41,4.40
2012,05,06,02,42,4.30
2012,05,06,02,43,4.30
2012,05,06,02,44,4.30
2012,05,06,02,45,4.30
2012,05,06,02,46,4.30
2012,05,06,02,47,4.30
2012,05,06,02,48,4.30
2012,05,06,02,49,4.30
2012,05,06,02,50,4.30
2012,05,06,02,51,4.30
2012,05,06,02,52,4.30
2012,05,06,02,53,4.40
2012,05,06,02,54,4.40
2012,05,06,02,55,4.50
2012,05,06,02,56,4.60
2012,05,06,02,57,4.60
2012,05,06,02,58,4.70
2012,05,06,02,59,4.70
2012,05,06,03,00,4.80
2012,05,06,03,01,4.80
2012,05,06,03,02,4.90
2012,05,06,03,03,5.00
2012,05,06,03,06,5.30
2012,05,06,03,07,5.30
2012,05,06,03,08,5.40
2012,05,06,03,09,5.40
2012,05,06,03,10,5.40
2012,05,06,03,11,5.40
2012,05,06,03,12,5.40
2012,05,06,03,13,5.40
2012,05,06,03,14,5.40
2012,05,06,03,15,5.50
2012,05,06,03,16,5.40
2012,05,06,03,17,5.40
2012,05,06,03,18,5.40
2012,05,06,03,19,5.40
2012,05,06,03,20,5.40
2012,05,06,03,21,5.40
2012,05,06,03,22,5.40
2012,05,06,03,23,5.40
2012,05,06,03,24,5.40
2012,05,06,03,25,5.40
2012,05,06,03,26,5.50
2012,05,06,03,27,5.40
2012,05,06,03,28,5.40
2012,05,06,03,29,5.40
2012,05,06,03,30,5.40
2012,05,06,03,31,5.40
2012,05,06,03,32,5.40
2012,05,06,03,33,5.40
2012,05,06,03,34,5.40
2012,05,06,03,35,5.40
2012,05,06,03,36,5.30
2012,05,06,03,37,5.30
2012,05,06,03,38,5.30
2012,05,06,03,39,5.30
2012,05,06,03,40,5.30
2012,05,06,03,41,5.30
2012,05,06,03,42,5.20
2012,05,06,03,43,5.20
2012,05,06,03,44,5.20
2012,05,06,03,45,5.20
2012,05,06,03,46,5.20
2012,05,06,03,47,5.20
2012,05,06,03,48,5.20
2012,05,06,03,49,5.20
2012,05,06,03,50,5.20
2012,05,06,03,51,5.20
2012,05,06,03,52,5.20
2012,05,06,03,53,5.20
2012,05,06,03,54,5.20
2012,05,06,03,55,5.20
2012,05,06,03,56,5.20
2012,05,06,03,57,5.20
2012,05,06,03,58,5.20
2012,05,06,03,59,5.20
2012,05,06,04,00,5.10
2012,05,06,04,01,5.10
2012,05,06,04,02,5.10
2012,05,06,04,03,5.10
2012,05,06,04,04,5.10
2012,05,06,04,05,5.10
2012,05,06,04,06,5.10
2012,05,06,04,07,5.10
2012,05,06,04,08,5.20
2012,05,06,04,09,5.20
2012,05,06,04,10,5.20
2012,05,06,04,11,5.20
2012,05,06,04,12,5.20
2012,05,06,04,13,5.20
2012,05,06,04,14,5.20
2012,05,06,04,15,5.20
2012,05,06,04,16,5.20
2012,05,06,04,17,5.20
2012,05,06,04,18,5.30
2012,05,06,04,19,5.30
2012,05,06,04,20,5.30
2012,05,06,04,21,5.30
2012,05,06,04,22,5.30
2012,05,06,04,23,5.30
2012,05,06,04,24,5.30
2012,05,06,04,25,5.30
2012,05,06,04,26,5.30
2012,05,06,04,27,5.30
2012,05,06,04,28,5.20
2012,05,06,04,29,5.20
2012,05,06,04,30,5.20
2012,05,06,04,31,5.20
2012,05,06,04,32,5.20
2012,05,06,04,33,5.20
2012,05,06,04,34,5.20
2012,05,06,04,35,5.20
2012,05,06,04,36,5.10
2012,05,06,04,37,5.00
2012,05,06,04,38,5.00
2012,05,06,04,39,4.90
2012,05,06,04,40,4.80
2012,05,06,04,41,4.80
2012,05,06,04,42,4.80
2012,05,06,04,43,4.70
2012,05,06,04,44,4.70
2012,05,06,04,45,4.60
2012,05,06,04,46,4.60
2012,05,06,04,47,4.60
2012,05,06,04,48,4.50
2012,05,06,04,49,4.50
2012,05,06,04,50,4.50
2012,05,06,04,51,4.40
2012,05,06,04,52,4.40
2012,05,06,04,53,4.40
2012,05,06,04,54,4.40
2012,05,06,04,55,4.40
2012,05,06,04,56,4.40
2012,05,06,04,57,4.40
2012,05,06,04,58,4.30
2012,05,06,04,59,4.30
2012,05,06,05,00,4.30
2012,05,06,05,01,4.30
2012,05,06,05,02,4.30
2012,05,06,05,03,4.30
2012,05,06,05,04,4.30
2012,05,06,05,05,4.30
2012,05,06,05,06,4.30
2012,05,06,05,07,4.40
2012,05,06,05,08,4.40
2012,05,06,05,09,4.40
2012,05,06,05,10,4.40
2012,05,06,05,11,4.40
2012,05,06,05,12,4.40
2012,05,06,05,13,4.40
2012,05,06,05,14,4.30
2012,05,06,05,15,4.30
2012,05,06,05,16,4.30
2012,05,06,05,17,4.30
2012,05,06,05,18,4.30
2012,05,06,05,19,4.30
2012,05,06,05,20,4.30
2012,05,06,05,21,4.30
2012,05,06,05,22,4.40
2012,05,06,05,23,4.40
2012,05,06,05,24,4.40
2012,05,06,05,25,4.40
2012,05,06,05,26,4.40
2012,05,06,05,27,4.40
2012,05,06,05,28,4.40
2012,05,06,05,29,4.40
2012,05,06,05,30,4.40
2012,05,06,05,31,4.40
2012,05,06,05,32,4.40
2012,05,06,05,33,4.40
2012,05,06,05,34,4.40
2012,05,06,05,35,4.40
2012,05,06,05,36,4.30
2012,05,06,05,37,4.30
2012,05,06,05,38,4.30
2012,05,06,05,39,4.20
2012,05,06,05,40,4.20
2012,05,06,05,41,4.20
2012,05,06,05,42,4.10
2012,05,06,05,43,4.10
2012,05,06,05,44,4.10
2012,05,06,05,45,4.10
2012,05,06,05,46,4.10
2012,05,06,05,47,4.00
2012,05,06,05,48,4.00
2012,05,06,05,49,4.10
2012,05,06,05,50,4.10
2012,05,06,05,51,4.10
2012,05,06,05,52,4.10
2012,05,06,05,53,4.10
2012,05,06,05,54,4.10
2012,05,06,05,55,4.10
2012,05,06,05,56,4.10
2012,05,06,05,57,4.10
2012,05,06,05,58,4.10
2012,05,06,05,59,4.10
2012,05,06,06,00,4.10
2012,05,06,06,01,4.00
2012,05,06,06,02,4.00
2012,05,06,06,03,3.90
2012,05,06,06,04,3.90
2012,05,06,06,05,3.90
2012,05,06,06,06,3.90
2012,05,06,06,07,3.90
2012,05,06,06,08,3.90
2012,05,06,06,09,3.90
2012,05,06,06,10,3.90
2012,05,06,06,11,3.90
2012,05,06,06,12,4.00
2012,05,06,06,13,4.00
2012,05,06,06,14,4.00
2012,05,06,06,15,4.10
2012,05,06,06,16,4.10
2012,05,06,06,17,4.10
2012,05,06,06,18,4.10
2012,05,06,06,19,4.10
2012,05,06,06,20,4.10
2012,05,06,06,21,4.10
2012,05,06,06,22,4.10
2012,05,06,06,23,4.10
2012,05,06,06,24,4.10
2012,05,06,06,25,4.10
2012,05,06,06,26,4.10
2012,05,06,06,27,4.10
2012,05,06,06,28,4.20
2012,05,06,06,29,4.20
2012,05,06,06,30,4.20
2012,05,06,06,31,4.30
2012,05,06,06,32,4.30
2012,05,06,06,33,4.30
2012,05,06,06,34,4.30
2012,05,06,06,35,4.30
2012,05,06,06,36,4.40
2012,05,06,06,37,4.40
2012,05,06,06,38,4.40
2012,05,06,06,39,4.50
2012,05,06,06,40,4.50
2012,05,06,06,41,4.60
2012,05,06,06,42,4.60
2012,05,06,06,43,4.70
2012,05,06,06,44,4.70
2012,05,06,06,45,4.70
2012,05,06,06,46,4.80
2012,05,06,06,47,4.90
2012,05,06,06,48,4.90
2012,05,06,06,49,5.00
2012,05,06,06,50,5.00
2012,05,06,06,51,5.10
2012,05,06,06,52,5.10
2012,05,06,06,53,5.20
2012,05,06,06,54,5.20
2012,05,06,06,55,5.30
2012,05,06,06,56,5.30
2012,05,06,06,57,5.40
2012,05,06,06,58,5.40
2012,05,06,06,59,5.50
2012,05,06,07,00,5.50
2012,05,06,07,01,5.60
2012,05,06,07,02,5.60
2012,05,06,07,03,5.60
2012,05,06,07,04,5.60
2012,05,06,07,05,5.70
2012,05,06,07,06,5.70
2012,05,06,07,07,5.70
2012,05,06,07,08,5.70
2012,05,06,07,09,5.70
2012,05,06,07,10,5.70
2012,05,06,07,11,5.70
2012,05,06,07,12,5.70
2012,05,06,07,13,5.80
2012,05,06,07,14,5.80
2012,05,06,07,15,5.80
2012,05,06,07,16,5.90
2012,05,06,07,17,5.90
2012,05,06,07,18,5.90
2012,05,06,07,19,5.90
2012,05,06,07,20,5.90
2012,05,06,07,21,5.90
2012,05,06,07,22,5.90
2012,05,06,07,23,5.90
2012,05,06,07,24,5.90
2012,05,06,07,25,5.90
2012,05,06,07,26,5.90
2012,05,06,07,27,6.00
2012,05,06,07,28,6.00
2012,05,06,07,29,6.00
2012,05,06,07,30,6.00
2012,05,06,07,31,6.10
2012,05,06,07,32,6.10
2012,05,06,07,33,6.10
2012,05,06,07,34,6.10
2012,05,06,07,35,6.10
2012,05,06,07,36,6.10
2012,05,06,07,37,6.10
2012,05,06,07,38,6.20
2012,05,06,07,39,6.20
2012,05,06,07,40,6.30
2012,05,06,07,41,6.30
2012,05,06,07,42,6.30
2012,05,06,07,43,6.30
2012,05,06,07,44,6.40
2012,05,06,07,45,6.40
2012,05,06,07,46,6.50
2012,05,06,07,47,6.50
2012,05,06,07,48,6.50
2012,05,06,07,49,6.50
2012,05,06,07,50,6.50
2012,05,06,07,51,6.50
2012,05,06,07,52,6.50
2012,05,06,07,53,6.40
2012,05,06,07,54,6.40
2012,05,06,07,55,6.40
2012,05,06,07,56,6.40
2012,05,06,07,57,6.50
2012,05,06,07,58,6.50
2012,05,06,07,59,6.60
2012,05,06,08,00,6.60
2012,05,06,08,01,6.70
2012,05,06,08,02,6.70
2012,05,06,08,03,6.80
2012,05,06,08,04,6.90
2012,05,06,08,05,7.00
2012,05,06,08,06,7.10
2012,05,06,08,07,7.20
2012,05,06,08,08,7.20
2012,05,06,08,09,7.30
2012,05,06,08,10,7.30
2012,05,06,08,11,7.30
2012,05,06,08,12,7.40
2012,05,06,08,13,7.40
2012,05,06,08,14,7.40
2012,05,06,08,15,7.40
2012,05,06,08,16,7.30
2012,05,06,08,17,7.30
2012,05,06,08,18,7.30
2012,05,06,08,19,7.20
2012,05,06,08,20,7.20
2012,05,06,08,21,7.20
2012,05,06,08,22,7.20
2012,05,06,08,23,7.20
2012,05,06,08,24,7.20
2012,05,06,08,25,7.20
2012,05,06,08,26,7.20
2012,05,06,08,27,7.20
2012,05,06,08,28,7.30
2012,05,06,08,29,7.30
2012,05,06,08,30,7.50
2012,05,06,08,31,7.60
2012,05,06,08,32,7.70
2012,05,06,08,33,7.90
2012,05,06,08,34,7.90
2012,05,06,08,35,8.00
2012,05,06,08,36,8.10
2012,05,06,08,37,8.20
2012,05,06,08,38,8.20
2012,05,06,08,39,8.30
2012,05,06,08,40,8.40
2012,05,06,08,41,8.50
2012,05,06,08,42,8.60
2012,05,06,08,43,8.60
2012,05,06,08,44,8.70
2012,05,06,08,45,8.70
2012,05,06,08,46,8.70
2012,05,06,08,47,8.70
2012,05,06,08,48,8.70
2012,05,06,08,49,8.80
2012,05,06,08,50,8.90
2012,05,06,08,51,9.00
2012,05,06,08,52,9.00
2012,05,06,08,53,9.10
2012,05,06,08,54,9.20
2012,05,06,08,55,9.30
2012,05,06,08,56,9.40
2012,05,06,08,57,9.50
2012,05,06,08,58,9.60
2012,05,06,08,59,9.60
2012,05,06,09,00,9.60
2012,05,06,09,01,9.60
2012,05,06,09,02,9.60
2012,05,06,09,03,9.70
2012,05,06,09,04,9.70
2012,05,06,09,05,9.70
2012,05,06,09,06,9.70
2012,05,06,09,07,9.70
2012,05,06,09,08,9.70
2012,05,06,09,09,9.70
2012,05,06,09,10,9.70
2012,05,06,09,11,9.70
2012,05,06,09,12,9.70
2012,05,06,09,13,9.70
2012,05,06,09,14,9.70
2012,05,06,09,15,9.70
2012,05,06,09,16,9.80
2012,05,06,09,17,9.80
2012,05,06,09,18,9.90
2012,05,06,09,19,9.90
2012,05,06,09,20,9.90
2012,05,06,09,21,9.90
2012,05,06,09,22,9.90
2012,05,06,09,23,9.90
2012,05,06,09,24,9.90
2012,05,06,09,25,9.90
2012,05,06,09,26,9.90
2012,05,06,09,27,10.00
2012,05,06,09,28,10.00
2012,05,06,09,29,10.10
2012,05,06,09,30,10.10
2012,05,06,09,31,10.20
2012,05,06,09,32,10.20
2012,05,06,09,33,10.10
2012,05,06,09,34,10.20
2012,05,06,09,35,10.20
2012,05,06,09,36,10.30
2012,05,06,09,37,10.40
2012,05,06,09,38,10.50
2012,05,06,09,39,10.50
2012,05,06,09,40,10.60
2012,05,06,09,41,10.60
2012,05,06,09,42,10.60
2012,05,06,09,43,10.70
2012,05,06,09,44,10.70
2012,05,06,09,45,10.70
2012,05,06,09,46,10.70
2012,05,06,09,47,10.70
2012,05,06,09,48,10.70
2012,05,06,09,49,10.70
2012,05,06,09,50,10.60
2012,05,06,09,51,10.60
2012,05,06,09,52,10.60
2012,05,06,09,53,10.70
2012,05,06,09,54,10.80
2012,05,06,09,55,10.90
2012,05,06,09,56,10.90
2012,05,06,09,57,11.00
2012,05,06,09,58,11.00
2012,05,06,09,59,11.10
2012,05,06,10,00,11.20
2012,05,06,10,01,11.30
2012,05,06,10,02,11.50
2012,05,06,10,03,11.60
2012,05,06,10,04,11.60
2012,05,06,10,05,11.50
2012,05,06,10,06,11.40
2012,05,06,10,07,11.40
2012,05,06,10,08,11.40
2012,05,06,10,09,11.30
2012,05,06,10,10,11.20
2012,05,06,10,11,11.10
2012,05,06,10,12,11.10
2012,05,06,10,13,11.10
2012,05,06,10,14,11.10
2012,05,06,10,15,11.10
2012,05,06,10,16,11.20
2012,05,06,10,17,11.20
2012,05,06,10,18,11.20
2012,05,06,10,19,11.30
2012,05,06,10,20,11.20
2012,05,06,10,21,11.10
2012,05,06,10,22,11.10
2012,05,06,10,23,11.10
2012,05,06,10,24,11.10
2012,05,06,10,25,11.10
2012,05,06,10,26,11.20
2012,05,06,10,27,11.30
2012,05,06,10,28,11.40
2012,05,06,10,29,11.50
2012,05,06,10,30,11.60
2012,05,06,10,31,11.70
2012,05,06,10,32,11.80
2012,05,06,10,33,11.80
2012,05,06,10,34,11.80
2012,05,06,10,35,11.90
2012,05,06,10,36,11.90
2012,05,06,10,37,12.00
2012,05,06,10,38,12.10
2012,05,06,10,39,12.20
2012,05,06,10,40,12.30
2012,05,06,10,41,12.40
2012,05,06,10,42,12.40
2012,05,06,10,43,12.40
2012,05,06,10,44,12.40
2012,05,06,10,45,12.50
2012,05,06,10,46,12.60
2012,05,06,10,47,12.70
2012,05,06,10,48,12.80
2012,05,06,10,49,12.90
2012,05,06,10,50,13.10
2012,05,06,10,51,13.20
2012,05,06,10,52,13.40
2012,05,06,10,53,13.60
2012,05,06,10,54,13.80
2012,05,06,10,55,13.70
2012,05,06,10,56,13.60
2012,05,06,10,57,13.50
2012,05,06,10,58,13.40
2012,05,06,10,59,13.20
2012,05,06,11,00,13.20
2012,05,06,11,01,13.20
2012,05,06,11,02,13.20
2012,05,06,11,03,13.20
2012,05,06,11,04,13.20
2012,05,06,11,05,13.20
2012,05,06,11,06,13.20
2012,05,06,11,07,13.20
2012,05,06,11,08,13.20
2012,05,06,11,09,13.30
2012,05,06,11,10,13.30
2012,05,06,11,11,13.40
2012,05,06,11,12,13.30
2012,05,06,11,13,13.20
2012,05,06,11,14,13.10
2012,05,06,11,15,13.00
2012,05,06,11,16,12.90
2012,05,06,11,17,12.90
2012,05,06,11,18,12.80
2012,05,06,11,19,12.80
2012,05,06,11,20,12.80
2012,05,06,11,21,12.80
2012,05,06,11,22,12.80
2012,05,06,11,23,12.80
2012,05,06,11,24,12.80
2012,05,06,11,25,12.80
2012,05,06,11,26,12.80
2012,05,06,11,27,12.80
2012,05,06,11,28,12.80
2012,05,06,11,29,12.90
2012,05,06,11,30,12.90
2012,05,06,11,31,13.00
2012,05,06,11,32,13.10
2012,05,06,11,33,13.30
2012,05,06,11,34,13.40
2012,05,06,11,35,13.50
2012,05,06,11,36,13.60
2012,05,06,11,37,13.80
2012,05,06,11,38,13.90
2012,05,06,11,39,14.00
2012,05,06,11,40,14.10
2012,05,06,11,41,14.10
2012,05,06,11,42,14.10
2012,05,06,11,43,14.20
2012,05,06,11,44,14.30
2012,05,06,11,45,14.40
2012,05,06,11,46,14.60
2012,05,06,11,47,14.70
2012,05,06,11,48,14.80
2012,05,06,11,49,14.80
2012,05,06,11,50,14.90
2012,05,06,11,51,14.90
2012,05,06,11,52,14.90
2012,05,06,11,53,14.80
2012,05,06,11,54,14.70
2012,05,06,11,55,14.60
2012,05,06,11,56,14.40
2012,05,06,11,57,14.30
2012,05,06,11,58,14.30
2012,05,06,11,59,14.20
2012,05,06,12,00,14.20
2012,05,06,12,01,14.20
2012,05,06,12,02,14.20
2012,05,06,12,03,14.10
2012,05,06,12,04,14.10
2012,05,06,12,05,14.10
2012,05,06,12,06,14.10
2012,05,06,12,07,14.20
2012,05,06,12,08,14.10
2012,05,06,12,09,14.00
2012,05,06,12,10,14.00
2012,05,06,12,11,13.90
2012,05,06,12,12,14.00
2012,05,06,12,13,14.00
2012,05,06,12,14,13.80
2012,05,06,12,15,13.80
2012,05,06,12,16,13.80
2012,05,06,12,17,13.90
2012,05,06,12,18,13.90
2012,05,06,12,19,13.90
2012,05,06,12,20,14.00
2012,05,06,12,21,14.00
2012,05,06,12,22,14.10
2012,05,06,12,23,14.10
2012,05,06,12,24,14.10
2012,05,06,12,25,14.10
2012,05,06,12,26,14.10
2012,05,06,12,27,14.10
2012,05,06,12,28,14.10
2012,05,06,12,29,14.00
2012,05,06,12,30,13.90
2012,05,06,12,31,13.90
2012,05,06,12,32,13.90
2012,05,06,12,33,14.00
2012,05,06,12,34,14.00
2012,05,06,12,35,14.00
2012,05,06,12,36,14.00
2012,05,06,12,37,14.00
2012,05,06,12,38,14.00
2012,05,06,12,39,13.90
2012,05,06,12,40,13.90
2012,05,06,12,41,13.90
2012,05,06,12,42,13.90
2012,05,06,12,43,14.00
2012,05,06,12,44,14.00
2012,05,06,12,45,14.00
2012,05,06,12,46,14.00
2012,05,06,12,47,13.90
2012,05,06,12,48,13.80
2012,05,06,12,49,13.80
2012,05,06,12,50,13.80
2012,05,06,12,51,13.90
2012,05,06,12,52,13.90
2012,05,06,12,53,13.90
2012,05,06,12,54,13.90
2012,05,06,12,55,13.90
2012,05,06,12,56,13.90
2012,05,06,12,57,14.00
2012,05,06,12,58,14.00
2012,05,06,12,59,14.00
2012,05,06,13,00,14.10
2012,05,06,13,01,14.00
2012,05,06,13,02,13.80
2012,05,06,13,03,13.70
2012,05,06,13,04,13.70
2012,05,06,13,05,13.80
2012,05,06,13,06,13.80
2012,05,06,13,07,13.90
2012,05,06,13,08,13.90
2012,05,06,13,09,14.00
2012,05,06,13,10,14.10
2012,05,06,13,11,14.20
2012,05,06,13,12,14.30
2012,05,06,13,13,14.20
2012,05,06,13,14,14.20
2012,05,06,13,15,14.20
2012,05,06,13,16,14.20
2012,05,06,13,17,14.30
2012,05,06,13,18,14.40
2012,05,06,13,19,14.50
2012,05,06,13,20,14.50
2012,05,06,13,21,14.60
2012,05,06,13,22,14.70
2012,05,06,13,23,14.60
2012,05,06,13,24,14.50
2012,05,06,13,25,14.40
2012,05,06,13,26,14.30
2012,05,06,13,27,14.20
2012,05,06,13,28,14.00
2012,05,06,13,29,13.90
2012,05,06,13,30,14.00
2012,05,06,13,31,14.20
2012,05,06,13,32,14.40
2012,05,06,13,33,14.50
2012,05,06,13,34,14.70
2012,05,06,13,35,14.80
2012,05,06,13,36,14.80
2012,05,06,13,37,14.70
2012,05,06,13,38,14.70
2012,05,06,13,39,14.80
2012,05,06,13,40,14.70
2012,05,06,13,41,14.70
2012,05,06,13,42,14.80
2012,05,06,13,43,14.90
2012,05,06,13,44,14.70
2012,05,06,13,45,14.60
2012,05,06,13,46,14.50
2012,05,06,13,47,14.50
2012,05,06,13,48,14.60
2012,05,06,13,49,14.60
2012,05,06,13,50,14.60
2012,05,06,13,51,14.60
2012,05,06,13,52,14.60
2012,05,06,13,53,14.70
2012,05,06,13,54,14.70
2012,05,06,13,55,14.70
2012,05,06,13,56,14.70
2012,05,06,13,57,14.70
2012,05,06,13,58,14.70
2012,05,06,13,59,14.70
2012,05,06,14,00,14.70
2012,05,06,14,01,14.80
2012,05,06,14,02,14.90
2012,05,06,14,03,15.00
2012,05,06,14,04,15.00
2012,05,06,14,05,15.00
2012,05,06,14,06,15.00
2012,05,06,14,07,15.00
2012,05,06,14,08,15.00
2012,05,06,14,09,15.00
2012,05,06,14,10,15.00
2012,05,06,14,11,15.00
2012,05,06,14,12,15.00
2012,05,06,14,13,15.00
2012,05,06,14,14,15.00
2012,05,06,14,15,15.20
2012,05,06,14,16,15.10
2012,05,06,14,17,15.00
2012,05,06,14,18,15.00
2012,05,06,14,19,14.90
2012,05,06,14,20,14.90
2012,05,06,14,21,15.00
2012,05,06,14,22,15.00
2012,05,06,14,23,15.10
2012,05,06,14,24,15.30
2012,05,06,14,25,15.30
2012,05,06,14,26,15.30
2012,05,06,14,27,15.40
2012,05,06,14,28,15.40
2012,05,06,14,29,15.50
2012,05,06,14,30,15.50
2012,05,06,14,31,15.40
2012,05,06,14,32,15.30
2012,05,06,14,33,15.30
2012,05,06,14,34,15.40
2012,05,06,14,35,15.50
2012,05,06,14,36,15.50
2012,05,06,14,37,15.40
2012,05,06,14,38,15.40
2012,05,06,14,39,15.40
2012,05,06,14,40,15.40
2012,05,06,14,41,15.40
2012,05,06,14,42,15.20
2012,05,06,14,43,15.20
2012,05,06,14,44,15.20
2012,05,06,14,45,15.30
2012,05,06,14,46,15.20
2012,05,06,14,47,15.10
2012,05,06,14,48,15.20
2012,05,06,14,49,15.20
2012,05,06,14,50,15.30
2012,05,06,14,51,15.30
2012,05,06,14,52,15.40
2012,05,06,14,53,15.40
2012,05,06,14,54,15.20
2012,05,06,14,55,15.10
2012,05,06,14,56,15.00
2012,05,06,14,57,15.10
2012,05,06,14,58,15.20
2012,05,06,14,59,15.10
2012,05,06,15,00,15.10
2012,05,06,15,01,15.20
2012,05,06,15,02,15.30
2012,05,06,15,03,15.30
2012,05,06,15,04,15.40
2012,05,06,15,05,15.20
2012,05,06,15,06,15.00
2012,05,06,15,07,15.00
2012,05,06,15,08,15.00
2012,05,06,15,09,15.00
2012,05,06,15,10,15.00
2012,05,06,15,11,15.10
2012,05,06,15,12,15.20
2012,05,06,15,13,15.30
2012,05,06,15,14,15.30
2012,05,06,15,15,15.40
2012,05,06,15,16,15.30
2012,05,06,15,17,15.20
2012,05,06,15,18,15.20
2012,05,06,15,19,15.20
2012,05,06,15,20,15.00
2012,05,06,15,21,15.00
2012,05,06,15,22,15.00
2012,05,06,15,23,15.00
2012,05,06,15,24,15.10
2012,05,06,15,25,15.20
2012,05,06,15,26,15.30
2012,05,06,15,27,15.30
2012,05,06,15,28,15.20
2012,05,06,15,29,15.10
2012,05,06,15,30,15.10
2012,05,06,15,31,15.10
2012,05,06,15,32,15.20
2012,05,06,15,33,15.10
2012,05,06,15,34,15.10
2012,05,06,15,35,15.00
2012,05,06,15,36,15.00
2012,05,06,15,37,15.10
2012,05,06,15,38,15.20
2012,05,06,15,39,15.30
2012,05,06,15,40,15.40
2012,05,06,15,41,15.40
2012,05,06,15,42,15.30
2012,05,06,15,43,15.40
2012,05,06,15,44,15.40
2012,05,06,15,45,15.60
2012,05,06,15,46,15.70
2012,05,06,15,47,15.80
2012,05,06,15,48,15.80
2012,05,06,15,49,15.80
2012,05,06,15,50,15.80
2012,05,06,15,51,15.80
2012,05,06,15,52,15.70
2012,05,06,15,53,15.70
2012,05,06,15,54,15.60
2012,05,06,15,55,15.60
2012,05,06,15,56,15.60
2012,05,06,15,57,15.50
2012,05,06,15,58,15.30
2012,05,06,15,59,15.30
2012,05,06,16,00,15.30
2012,05,06,16,01,15.30
2012,05,06,16,02,15.30
2012,05,06,16,03,15.40
2012,05,06,16,04,15.50
2012,05,06,16,05,15.50
2012,05,06,16,06,15.40
2012,05,06,16,07,15.30
2012,05,06,16,08,15.30
2012,05,06,16,09,15.20
2012,05,06,16,10,15.20
2012,05,06,16,11,15.20
2012,05,06,16,12,15.20
2012,05,06,16,13,15.20
2012,05,06,16,14,15.30
2012,05,06,16,15,15.30
2012,05,06,16,16,15.40
2012,05,06,16,17,15.40
2012,05,06,16,18,15.30
2012,05,06,16,19,15.40
2012,05,06,16,20,15.40
2012,05,06,16,21,15.50
2012,05,06,16,22,15.50
2012,05,06,16,23,15.50
2012,05,06,16,24,15.40
2012,05,06,16,25,15.30
2012,05,06,16,26,15.30
2012,05,06,16,27,15.30
2012,05,06,16,28,15.30
2012,05,06,16,29,15.40
2012,05,06,16,30,15.40
2012,05,06,16,31,15.50
2012,05,06,16,32,15.50
2012,05,06,16,33,15.60
2012,05,06,16,34,15.60
2012,05,06,16,35,15.50
2012,05,06,16,36,15.40
2012,05,06,16,37,15.40
2012,05,06,16,38,15.40
2012,05,06,16,39,15.40
2012,05,06,16,40,15.50
2012,05,06,16,41,15.50
2012,05,06,16,42,15.50
2012,05,06,16,43,15.40
2012,05,06,16,44,15.40
2012,05,06,16,45,15.30
2012,05,06,16,46,15.30
2012,05,06,16,47,15.20
2012,05,06,16,48,15.20
2012,05,06,16,49,15.20
2012,05,06,16,50,15.30
2012,05,06,16,51,15.30
2012,05,06,16,52,15.20
2012,05,06,16,53,15.20
2012,05,06,16,54,15.30
2012,05,06,16,55,15.30
2012,05,06,16,56,15.30
2012,05,06,16,57,15.30
2012,05,06,16,58,15.30
2012,05,06,16,59,15.20
2012,05,06,17,00,15.30
2012,05,06,17,01,15.20
2012,05,06,17,02,15.20
2012,05,06,17,03,15.20
2012,05,06,17,04,15.10
2012,05,06,17,05,15.10
2012,05,06,17,06,15.20
2012,05,06,17,07,15.20
2012,05,06,17,08,15.20
2012,05,06,17,09,15.20
2012,05,06,17,10,15.20
2012,05,06,17,11,15.30
2012,05,06,17,12,15.30
2012,05,06,17,13,15.30
2012,05,06,17,14,15.30
2012,05,06,17,15,15.30
2012,05,06,17,16,15.30
2012,05,06,17,17,15.30
2012,05,06,17,18,15.30
2012,05,06,17,19,15.30
2012,05,06,17,20,15.40
2012,05,06,17,21,15.40
2012,05,06,17,22,15.40
2012,05,06,17,23,15.30
2012,05,06,17,24,15.30
2012,05,06,17,25,15.20
2012,05,06,17,26,15.20
2012,05,06,17,27,15.20
2012,05,06,17,28,15.30
2012,05,06,17,29,15.30
2012,05,06,17,30,15.30
2012,05,06,17,31,15.20
2012,05,06,17,32,15.20
2012,05,06,17,33,15.20
2012,05,06,17,34,15.10
2012,05,06,17,35,15.10
2012,05,06,17,36,15.00
2012,05,06,17,37,15.00
2012,05,06,17,38,15.00
2012,05,06,17,39,15.00
2012,05,06,17,40,15.00
2012,05,06,17,41,14.90
2012,05,06,17,42,14.90
2012,05,06,17,43,14.90
2012,05,06,17,44,14.80
2012,05,06,17,45,14.80
2012,05,06,17,46,14.80